CW8095 Weather Reports


time (UTC)temp
C
wind
direction
speed
KPH
gust
KPH
rain 1hr
cm
rain 24hr
cm
rain mn
cm
humidity
%
barometer
mb
20260903233522 28 144 6.4 16.1 0.00 0.00 0.00 49 1011.4
20260903232517 28 134 9.7 16.1 0.00 0.00 0.00 48 1011.2
20260903231528 29 122 9.7 17.7 0.00 0.00 0.00 48 1011.3
20260903230524 29 138 8.0 17.7 0.00 0.00 0.00 48 1011.1
20260903225519 30 136 8.0 16.1 0.00 0.00 0.00 48 1011.1
20260903224530 30 150 6.4 14.5 0.00 0.00 0.00 48 1011.1
20260903223525 30 124 8.0 17.7 0.00 0.00 0.00 48 1011.3
20260903222520 30 136 8.0 14.5 0.00 0.00 0.00 47 1011.3
20260903221516 31 125 9.7 17.7 0.00 0.00 0.00 45 1011.3
20260903220527 31 134 9.7 20.9 0.00 0.00 0.00 45 1011.3
20260903215522 31 111 9.7 17.7 0.00 0.00 0.00 46 1011.2
20260903214517 32 148 6.4 12.9 0.00 0.00 0.00 44 1011.2
20260903213528 31 124 6.4 14.5 0.00 0.00 0.00 45 1011.2
20260903212523 31 144 8.0 14.5 0.00 0.00 0.00 46 1011.4
20260903211519 31 173 6.4 20.9 0.00 0.00 0.00 45 1011.4
20260903210529 31 170 6.4 16.1 0.00 0.00 0.00 46 1011.5
20260903205525 31 184 6.4 14.5 0.00 0.00 0.00 48 1011.8
20260903204521 30 170 6.4 24.1 0.00 0.00 0.00 49 1011.9
20260903203516 30 151 8.0 17.7 0.00 0.00 0.00 50 1012.0
20260903202527 30 149 6.4 16.1 0.00 0.00 0.00 50 1012.0
20260903201522 29 165 8.0 22.5 0.00 0.00 0.00 51 1012.1
20260903200517 29 166 8.0 24.1 0.00 0.00 0.00 51 1012.1
20260903195528 28 163 9.7 22.5 0.00 0.00 0.00 53 1012.1
20260903194523 28 151 11.3 17.7 0.00 0.00 0.00 53 1012.2
20260903193518 28 172 6.4 24.1 0.00 0.00 0.00 54 1012.4
20260903192529 28 171 6.4 22.5 0.00 0.00 0.00 54 1012.5
20260903191524 28 152 9.7 20.9 0.00 0.00 0.00 55 1012.7
20260903190520 28 151 11.3 24.1 0.00 0.00 0.00 56 1012.9
20260903185515 27 168 6.4 17.7 0.00 0.00 0.00 57 1013.1
20260903184526 27 158 8.0 20.9 0.00 0.00 0.00 58 1013.3
20260903183521 27 146 8.0 20.9 0.00 0.00 0.00 59 1013.5
20260903182517 27 127 9.7 20.9 0.00 0.00 0.00 59 1013.6
20260903181527 26 154 11.3 22.5 0.00 0.00 0.00 61 1013.6
20260903180522 26 161 11.3 27.4 0.00 0.00 0.00 61 1013.6
20260903175520 26 147 9.7 25.7 0.00 0.00 0.00 62 1013.7
20260903174528 26 149 8.0 22.5 0.00 0.00 0.00 62 1013.9
20260903173544 26 144 9.7 27.4 0.00 0.00 0.00 62 1014.0
20260903172519 26 157 9.7 25.7 0.00 0.00 0.00 61 1014.1
20260903171550 27 166 11.3 33.8 0.00 0.00 0.00 60 1014.0
20260903170525 27 159 9.7 22.5 0.00 0.00 0.00 61 1014.1
20260903165521 27 157 9.7 27.4 0.00 0.00 0.00 60 1014.0
20260903164517 27 150 9.7 25.7 0.00 0.00 0.00 61 1014.1
20260903163528 27 165 8.0 24.1 0.00 0.00 0.00 61 1014.1
20260903162523 26 157 8.0 20.9 0.00 0.00 0.00 63 1014.0
20260903161518 26 135 8.0 20.9 0.00 0.00 0.00 64 1014.0
20260903160528 26 155 6.4 17.7 0.00 0.00 0.00 65 1014.1
20260903155524 25 149 8.0 17.7 0.00 0.00 0.00 66 1014.1
20260903154520 25 160 6.4 14.5 0.00 0.00 0.00 67 1014.0
20260903153515 25 157 4.8 14.5 0.00 0.00 0.00 68 1014.0
20260903152526 24 167 4.8 20.9 0.00 0.00 0.00 69 1013.9
20260903151521 24 171 6.4 16.1 0.00 0.00 0.00 69 1013.8
20260903150516 24 166 4.8 14.5 0.00 0.00 0.00 69 1014.0
20260903145607 24 142 6.4 17.7 0.00 0.00 0.00 68 1014.1
20260903144522 24 157 4.8 17.7 0.00 0.00 0.00 68 1014.0
20260903143517 24 144 4.8 14.5 0.00 0.00 0.00 69 1013.9
20260903142528 24 137 3.2 11.3 0.00 0.00 0.00 69 1013.9
20260903141523 23 126 4.8 9.7 0.00 0.00 0.00 69 1013.7
20260903140519 24 122 8.0 16.1 0.00 0.00 0.00 69 1013.9
20260903135529 24 128 6.4 16.1 0.00 0.00 0.00 68 1014.0
20260903134525 23 118 6.4 11.3 0.00 0.00 0.00 69 1013.9
20260903133521 22 132 6.4 12.9 0.00 0.00 0.00 72 1013.7
20260903132516 22 126 4.8 9.7 0.00 0.00 0.00 73 1013.7
20260903131526 22 142 4.8 9.7 0.00 0.00 0.00 74 1013.6
20260903130542 21 121 4.8 9.7 0.00 0.00 0.00 74 1013.8
20260903125517 21 109 3.2 6.4 0.00 0.00 0.00 75 1013.7
20260903124528 21 112 4.8 9.7 0.00 0.00 0.00 75 1013.7
20260903123523 21 129 3.2 6.4 0.00 0.00 0.00 75 1013.4
20260903122519 21 144 4.8 12.9 0.00 0.00 0.00 75 1013.5
20260903121529 21 126 3.2 9.7 0.00 0.00 0.00 75 1013.4
20260903120525 21 121 1.6 4.8 0.00 0.00 0.00 75 1013.3
20260903115520 21 135 3.2 6.4 0.00 0.00 0.00 74 1013.3
20260903114515 21 124 4.8 9.7 0.00 0.00 0.00 74 1013.3
20260903113606 21 118 3.2 6.4 0.00 0.00 0.00 74 1013.2
20260903112541 21 100 3.2 6.4 0.00 0.00 0.00 73 1013.2
20260903111517 21 116 4.8 6.4 0.00 0.00 0.00 73 1013.2
20260903110527 21 99 3.2 4.8 0.00 0.00 0.00 72 1013.1
20260903105603 21 144 3.2 11.3 0.00 0.00 0.00 72 1013.1
20260903104518 21 137 3.2 9.7 0.00 0.00 0.00 72 1013.1
20260903103529 21 146 1.6 3.2 0.00 0.00 0.00 71 1012.9
20260903102524 21 146 3.2 6.4 0.00 0.00 0.00 70 1012.9
20260903101520 22 123 1.6 4.8 0.00 0.00 0.00 70 1013.0
20260903100515 22 112 3.2 6.4 0.00 0.00 0.00 70 1013.0
20260903095526 22 116 3.2 6.4 0.00 0.00 0.00 70 1013.1
20260903094521 22 116 3.2 6.4 0.00 0.00 0.00 70 1013.1
20260903093517 22 114 3.2 6.4 0.00 0.00 0.00 70 1013.1
20260903092527 22 104 3.2 4.8 0.00 0.00 0.00 70 1013.1
20260903091523 22 101 3.2 4.8 0.00 0.00 0.00 70 1013.1
20260903090519 22 117 1.6 4.8 0.00 0.00 0.00 70 1012.9
20260903085549 22 113 1.6 4.8 0.00 0.00 0.00 70 1012.9
20260903084525 22 64 0.0 1.6 0.00 0.00 0.00 69 1012.9
20260903083520 22 48 3.2 4.8 0.00 0.00 0.00 68 1012.7
20260903082529 22 0.0 0.0 0.00 0.00 0.00 68 1012.8
20260903081524 22 0.0 0.0 0.00 0.00 0.00 68 1012.9
20260903080531 22 183 0.0 1.6 0.00 0.00 0.00 68 1013.0
20260903075531 22 184 1.6 4.8 0.00 0.00 0.00 68 1012.9
20260903074521 22 0.0 0.0 0.00 0.00 0.00 67 1012.9
20260903073518 22 158 0.0 3.2 0.00 0.00 0.00 67 1013.0
20260903072538 22 158 1.6 3.2 0.00 0.00 0.00 67 1013.2
20260903071531 22 161 1.6 4.8 0.00 0.00 0.00 66 1013.3
20260903070525 22 158 1.6 3.2 0.00 0.00 0.00 66 1013.2
20260903065527 22 160 1.6 4.8 0.00 0.00 0.00 65 1013.1
20260903064525 23 164 1.6 4.8 0.00 0.00 0.00 64 1013.1
20260903063529 23 155 0.0 3.2 0.00 0.00 0.00 63 1013.1
20260903062545 23 153 1.6 4.8 0.00 0.00 0.00 63 1013.3
20260903061539 23 133 0.0 1.6 0.00 0.00 0.00 63 1013.4
20260903060607 23 137 1.6 3.2 0.00 0.00 0.00 62 1013.6
20260903055538 23 140 3.2 4.8 0.00 0.00 0.00 62 1013.5
20260903054522 23 148 1.6 6.4 0.00 0.00 0.00 61 1013.7
20260903053527 23 137 3.2 4.8 0.00 0.00 0.00 61 1013.7
20260903052534 23 137 3.2 6.4 0.00 0.00 0.00 60 1013.9
20260903051534 24 147 4.8 11.3 0.00 0.00 0.00 59 1013.8
20260903050541 24 119 1.6 9.7 0.00 0.00 0.00 58 1013.6
20260903045541 24 142 3.2 6.4 0.00 0.00 0.00 58 1013.7
20260903044603 25 141 3.2 9.7 0.00 0.00 0.00 57 1013.5
20260903043524 25 142 3.2 6.4 0.00 0.00 0.00 56 1013.6
20260903042520 25 121 1.6 3.2 0.00 0.00 0.00 55 1013.5
20260903041517 25 119 4.8 9.7 0.00 0.00 0.00 55 1013.4
20260903040529 26 126 6.4 12.9 0.00 0.00 0.00 54 1013.4
20260903035525 26 109 6.4 9.7 0.00 0.00 0.00 54 1013.4
20260903034526 26 125 9.7 16.1 0.00 0.00 0.00 54 1013.5
20260903033527 26 119 9.7 16.1 0.00 0.00 0.00 53 1013.6
20260903032545 26 113 8.0 14.5 0.00 0.00 0.00 53 1013.4
20260903031523 26 112 8.0 14.5 0.00 0.00 0.00 52 1013.3
20260903030526 27 115 8.0 17.7 0.00 0.00 0.00 52 1013.2
20260903025521 27 115 8.0 12.9 0.00 0.00 0.00 51 1013.1
20260903024516 27 111 8.0 14.5 0.00 0.00 0.00 50 1012.9
20260903023527 27 114 9.7 17.7 0.00 0.00 0.00 48 1012.8
20260903022521 28 107 9.7 16.1 0.00 0.00 0.00 47 1012.7
20260903021517 28 110 11.3 22.5 0.00 0.00 0.00 46 1012.5
20260903020527 28 110 9.7 17.7 0.00 0.00 0.00 45 1012.4
20260903015522 28 108 9.7 16.1 0.00 0.00 0.00 45 1012.3
20260903014517 29 112 9.7 20.9 0.00 0.00 0.00 44 1012.2
20260903013546 29 107 9.7 16.1 0.00 0.00 0.00 44 1012.2
20260903012521 30 121 9.7 22.5 0.00 0.00 0.00 43 1012.1
20260903011517 30 112 8.0 14.5 0.00 0.00 0.00 43 1012.0
20260903010527 30 119 8.0 20.9 0.00 0.00 0.00 42 1011.9
20260903005522 30 112 11.3 22.5 0.00 0.00 0.00 41 1011.8
20260903004517 31 122 11.3 22.5 0.00 0.00 0.00 39 1011.8
20260903003527 31 125 9.7 20.9 0.00 0.00 0.00 37 1011.8
20260903002522 32 114 9.7 22.5 0.00 0.00 0.00 33 1011.6
20260903001517 32 106 11.3 24.1 0.00 0.00 0.00 34 1011.5
20260903000527 32 114 11.3 24.1 0.00 0.00 0.00 33 1011.5
20260902235522 33 116 11.3 24.1 0.00 0.00 0.00 33 1011.3
20260902234518 34 93 11.3 20.9 0.00 0.00 0.00 31 1011.3